CAPE
0 0 12 1 25 133 159 74 375 173 184 129 50 99 226 301 244 398 258 520 450 616 586 897 1259 1520 1711 1754 1713 1672 1656 1809 1905 1876 1910 2105 1900 2022 1739 1291 1768 1202 1374 1105 1108 1416 1239 1145 1677
6 10 29 341 241 337 9 312 307 173 163 83 3 130 222 206 221 261 360 393 397 481 529 587 1134 1704 1756 1806 1990 1990 2023 2039 2044 1925 1803 1884 1964 1878 1667 1554 1501 1351 1444 1339 1119 1287 1098 1206 1527
31 9 265 346 572 123 203 474 494 263 121 173 319 231 540 207 311 315 393 392 378 201 159 761 1191 1723 2030 1950 1997 1988 1947 1894 1880 1929 1832 1786 1575 1516 1532 1453 1470 1437 1594 1298 1346 1216 1306 1531 1179
11 173 364 462 286 433 137 351 218 21 146 237 204 365 263 296 260 294 447 381 175 271 208 1036 1390 1805 1808 1878 1861 1868 1911 1823 1956 1888 1782 1637 1555 1532 1451 1488 1436 1372 1503 1459 1383 1330 1236 1175 1287
80 330 377 366 340 176 27 374 139 129 229 240 471 425 228 80 233 256 289 214 97 244 256 1048 1534 1731 1728 1864 1865 1831 1850 1577 1783 1699 1724 1609 1597 1367 1366 1346 1462 1407 1426 1198 1256 1344 1439 1265 1372
182 423 313 294 59 287 408 528 343 255 369 445 536 236 206 161 148 248 258 394 60 39 193 418 1562 1543 1505 1561 1697 1845 1753 1741 1675 1687 1582 1523 1635 1901 1805 1622 1416 1358 1477 1190 1142 1158 1300 1382 1371
221 378 194 61 82 450 596 656 596 386 513 472 553 770 155 152 123 150 290 95 58 47 190 472 1135 1403 1480 1652 1664 1758 1765 1800 1833 1602 1735 1693 1631 1623 1536 1346 1330 1180 910 1152 870 886 1201 1354 1551
473 634 230 226 302 394 593 652 497 568 498 418 651 553 133 160 109 110 149 67 55 90 108 189 570 1092 561 1405 1586 1690 1791 1697 1495 1372 1641 1576 1246 765 664 1061 1148 1062 920 1128 916 956 1086 1262 1331
399 348 219 242 309 515 452 663 702 537 585 503 484 541 228 94 115 124 35 53 55 57 120 51 296 796 495 1192 1500 1634 1802 1733 1430 1394 1338 878 749 1020 1056 621 1232 1053 903 940 816 848 1126 1027 856
402 303 307 39 365 580 502 665 767 554 519 416 377 465 175 137 127 61 26 58 36 36 72 88 179 299 402 442 1040 1142 1096 802 948 663 1288 1257 1042 1136 498 618 1129 1212 1076 888 735 795 298 1010 938
178 458 374 253 634 518 553 675 602 495 301 408 435 261 128 155 110 37 21 34 21 20 80 60 118 177 168 484 848 546 956 591 872 780 779 521 469 573 391 801 794 908 1095 704 712 758 945 1230 765
25 96 304 306 636 389 498 480 529 511 369 318 499 324 177 195 102 61 38 21 14 12 42 47 99 276 298 182 488 527 486 295 459 797 1062 1074 1048 1001 859 933 845 916 773 685 703 775 788 861 512
0 23 412 481 395 516 398 327 437 514 445 470 420 315 169 224 108 90 61 25 7 6 21 36 97 317 613 659 750 459 212 211 644 870 1047 1005 1157 701 866 665 538 955 697 427 293 334 670 882 769
0 0 128 458 369 325 166 169 301 609 571 540 379 303 217 258 175 73 65 20 4 3 10 27 138 400 554 548 664 376 207 1022 526 803 772 1445 1195 965 777 856 644 673 448 732 715 621 411 579 609
0 0 0 21 357 311 252 195 143 504 591 601 389 321 169 177 232 100 92 8 2 0 2 11 132 355 564 882 681 332 432 609 631 1054 1306 1253 1488 1435 1272 976 390 717 867 1097 625 108 36 125 369
0 0 0 0 81 373 288 291 168 631 621 657 376 320 240 190 239 149 126 15 6 1 0 3 9 277 498 753 691 557 390 544 558 658 1102 1082 1421 1459 1138 821 743 617 547 458 414 92 282 66 154
0 0 0 0 0 98 287 203 7 507 608 665 400 345 277 199 184 156 91 20 6 0 0 1 9 167 419 686 606 692 668 698 651 863 1000 1319 1589 1586 1471 969 1308 944 1024 268 179 7 140 72 27
0 0 0 0 132 117 303 228 85 644 531 692 485 341 309 273 223 134 64 33 2 0 0 0 35 161 422 631 607 466 574 611 703 855 1494 1518 1471 1548 1621 1168 1119 976 375 219 539 150 415 421 42
0 0 0 0 187 147 157 223 0 522 506 673 610 305 318 320 281 130 60 26 1 0 0 25 62 394 275 364 251 208 406 496 736 782 1243 1306 1452 1548 1755 1407 1288 1180 762 696 295 356 156 26 16
0 0 0 0 19 136 146 192 346 395 434 595 655 472 326 372 307 151 83 25 9 8 55 141 194 503 359 215 209 180 334 432 470 444 1145 1364 1248 1608 1459 1514 1377 1179 764 840 913 860 223 22 31
0 0 0 0 0 84 149 95 160 150 377 510 656 686 287 353 391 258 144 47 23 33 85 302 421 539 503 159 160 200 342 597 459 851 984 1322 1482 1656 1683 1745 1027 1185 1184 832 995 944 674 164 52
0 0 0 0 0 0 30 74 31 34 388 428 605 715 610 243 378 400 315 175 79 31 69 337 529 661 635 334 0 198 279 250 269 572 460 935 1406 1505 1748 1936 1878 1350 1155 1011 1055 702 701 380 66
0 0 0 0 0 0 0 2 105 108 327 327 529 663 659 510 305 358 367 352 166 38 101 123 701 836 560 505 154 116 484 134 186 255 1065 1007 1578 1516 1417 1872 1685 1770 1170 1185 1020 1307 1048 177 480
0 0 0 0 0 0 0 2 24 7 62 320 484 568 624 602 463 376 331 371 311 124 93 288 764 1076 1064 851 160 518 321 432 24 89 892 519 1161 1290 1378 1548 1782 1597 1443 1544 1425 1336 1228 1310 391
0 0 0 0 0 0 0 0 0 69 39 52 353 490 554 559 566 474 355 291 407 328 229 383 928 1290 1281 1186 463 567 751 466 775 726 476 349 174 327 1228 1556 1842 1924 1973 1630 1578 1701 1591 1502 985
0 0 0 0 0 0 0 0 0 0 37 57 6 399 483 522 514 555 484 369 466 499 491 513 960 1530 1524 1211 968 514 779 210 224 615 409 281 112 151 1640 1879 1486 1730 1986 1557 1711 1578 1532 1724 1437
0 0 0 0 0 0 0 0 0 0 0 18 0 198 302 498 541 508 575 501 501 574 681 628 840 1510 1662 1126 1493 1523 848 249 43 531 909 990 555 316 264 878 1564 1409 1292 1691 1676 1437 1932 1322 1902
0 0 0 0 0 0 0 0 0 0 0 0 2 44 84 329 590 681 693 561 500 576 609 728 898 1550 1552 1335 1557 1509 1283 1041 691 1123 1569 943 929 829 667 683 786 1351 1354 1362 1925 1517 1681 1966 1740
0 0 0 4 0 0 0 0 0 0 0 0 0 0 103 544 512 632 733 864 629 516 581 676 850 1132 1295 1449 1490 1223 1303 931 953 1475 1510 1411 1296 1446 1234 1194 1079 1062 1223 1284 1979 1798 1731 2105 1969
0 0 0 19 4 0 0 0 0 0 0 0 0 0 0 35 324 491 631 863 974 964 708 625 659 763 1121 1267 1461 1339 1505 1041 1015 1210 1358 1719 1814 1754 1723 1708 1489 1301 916 1305 2055 1820 1398 1835 1818
CIN
-0 -0 -2 -4 -35 -20 -8 -8 -2 -5 -5 -8 -5 -8 -9 -12 -39 -1 -5 -0 -1 -0 -4 -1 -1 -0 -0 -0 -0 -0 -0 -0 -0 -0 -0 -0 -0 -0 -0 -2 -0 -0 -0 -0 -0 -0 -0 -0 -0
-1 -1 -30 -0 -2 -1 -29 -2 -1 -5 -3 -6 -69 -5 -10 -11 -13 -20 -2 -1 -1 -2 -1 -4 -2 -0 -0 -0 -0 -0 -0 -0 -0 -0 -0 -0 -0 -0 -0 -0 -0 -2 -0 -0 -0 -0 -3 -0 -0
-60 -1 -1 -0 -0 -49 -7 -5 -3 -2 -16 -7 -1 -4 -1 -1 -2 -11 -3 -2 -2 -15 -22 -3 -3 -0 -0 -0 -0 -0 -0 -0 -0 -0 -0 -0 -1 -1 -1 -0 -0 -0 -0 -1 -0 -2 -1 -0 -0
-2 -0 -0 -0 -3 -2 -45 -7 -25 -57 -3 -6 -10 -2 -13 -1 -1 -4 -1 -3 -11 -3 -10 -3 -2 -0 -0 -0 -0 -0 -0 -0 -0 -0 -0 -0 -0 -0 -0 -0 -0 -0 -0 -0 -1 -0 -1 -3 -0
-9 -1 -0 -0 -1 -12 -46 -21 -3 -4 -1 -7 -2 -2 -17 -11 -3 -3 -4 -2 -64 -3 -18 -0 -0 -0 -0 -0 -0 -0 -0 -2 -0 -1 -0 -0 -0 -0 -1 -0 -0 -0 -0 -6 -2 -1 -0 -2 -0
-3 -0 -1 -4 -31 -3 -2 -2 -2 -2 -4 -3 -1 -28 -20 -14 -12 -2 -3 -2 -4 -3 -3 -22 -0 -0 -0 -1 -0 -0 -0 -0 -0 -0 -0 -2 -0 -0 -0 -0 -0 -0 -0 -5 -5 -5 -3 -2 -4
-1 -1 -13 -41 -21 -1 -2 -8 -0 -19 -2 -6 -2 -1 -35 -25 -19 -4 -3 -48 -3 -3 -6 -2 -1 -0 -0 -0 -0 -0 -0 -0 -1 -0 -0 -0 -0 -0 -1 -0 -0 -0 -11 -1 -8 -14 -9 -9 -6
-1 -3 -6 -17 -1 -12 -1 -2 -6 -13 -2 -6 -3 -5 -56 -48 -35 -13 -15 -3 -6 -5 -10 -4 -1 -0 -2 -0 -0 -0 -0 -0 -1 -6 -7 -13 -16 -29 -25 -12 -1 -3 -9 -6 -14 -23 -21 -19 -20
-8 -4 -3 -5 -3 -7 -13 -2 -2 -6 -3 -1 -3 -6 -70 -89 -42 -20 -15 -4 -4 -3 -3 -3 -3 -1 -3 -0 -0 -0 -0 -1 -7 -15 -30 -43 -4 -2 -1 -34 -12 -7 -10 -21 -31 -37 -17 -40 -46
-6 -2 -27 -100 -4 -12 -15 -2 -2 -2 -1 -1 -2 -8 -83 -77 -56 -61 -5 -22 -5 -4 -3 -4 -8 -1 -1 -2 -4 -1 -2 -2 -1 -2 -6 -30 -11 -5 -3 -29 -25 -21 -25 -38 -50 -17 -403 -14 -10
-13 -4 -3 -7 -6 -2 -2 -3 -1 -4 -2 -2 -1 -56 -111 -78 -51 -53 -22 -2 -1 -3 -6 -5 -4 -2 -3 -11 -2 -1 -6 -1 -2 -0 -1 -0 -2 -2 -1 -16 -16 -25 -38 -10 -23 -32 -21 -10 -25
-19 -3 -4 -24 -8 -2 -2 -2 -1 -13 -11 -4 -2 -47 -90 -64 -39 -42 -36 -3 -2 -3 -4 -4 -4 -2 -2 -4 -2 -4 -2 -2 -2 -1 -0 -7 -4 -11 -6 -3 -2 -3 -32 -4 -1 -28 -3 -40 -38
-0 -26 -5 -9 -6 -2 -17 -3 -4 -2 -3 -2 -5 -37 -87 -41 -29 -35 -22 -59 -2 -3 -2 -3 -8 -1 -1 -4 -4 -1 -3 -3 -2 -2 -0 -7 -7 -7 -2 -0 -32 -2 -4 -19 -2 -5 -2 -2 -3
-0 -0 -14 -3 -3 -3 -11 -3 -5 -1 -2 -4 -21 -48 -68 -36 -20 -35 -20 -69 -3 -3 -2 -2 -2 -1 -1 -4 -5 -1 -3 -5 -2 -1 -2 -3 -10 -2 -1 -4 -4 -50 -21 -23 -5 -1 -2 -3 -36
-0 -0 -0 -54 -5 -4 -2 -13 -5 -7 -10 -14 -21 -39 -54 -34 -6 -30 -37 -9 -4 -0 -2 -2 -4 -2 -1 -3 -1 -1 -3 -2 -2 -4 -10 -1 -4 -1 -0 -2 -34 -2 -4 -4 -2 -5 -6 -13 -11
-0 -0 -0 -0 -11 -2 -2 -2 -4 -6 -3 -12 -21 -26 -29 -25 -7 -10 -24 -91 -5 -2 -0 -1 -2 -2 -1 -1 -1 -1 -3 -0 -2 -1 -0 -0 -0 -1 -11 -2 -6 -0 -15 -20 -30 -11 -21 -3 -21
-0 -0 -0 -0 -0 -32 -2 -11 -426 -3 -2 -2 -17 -12 -19 -19 -13 -12 -38 -85 -3 -0 -0 -0 -1 -1 -1 -1 -1 -3 -2 -2 -2 -5 -3 -4 -0 -4 -6 -3 -4 -7 -7 -21 -17 -15 -30 -7 -2
-0 -0 -0 -0 -10 -6 -4 -19 -80 -9 -3 -2 -13 -8 -9 -11 -24 -27 -53 -61 -3 -0 -0 -0 -51 -4 -1 -1 -1 -1 -2 -2 -1 -2 -4 -9 -0 -1 -3 -8 -6 -2 -0 -34 -6 -7 -5 -6 -30
-0 -0 -0 -0 -29 -4 -8 -11 -0 -1 -3 -3 -8 -23 -14 -11 -11 -29 -45 -53 -2 -0 -0 -49 -26 -2 -10 -4 -3 -3 -1 -2 -1 -3 -2 -1 -1 -1 -7 -5 -9 -8 -2 -10 -14 -2 -10 -13 -47
-0 -0 -0 -0 -6 -14 -8 -13 -2 -2 -2 -1 -13 -17 -15 -2 -4 -34 -53 -60 -71 -41 -50 -41 -28 -9 -28 -18 -10 -1 -2 -2 -1 -2 -1 -0 -0 -0 -0 -2 -2 -7 -2 -2 -1 -2 -15 -24 -18
-0 -0 -0 -0 -0 -5 -7 -14 -2 -126 -3 -1 -3 -3 -11 -13 -10 -25 -62 -87 -101 -73 -58 -39 -24 -20 -36 -25 -11 -1 -2 -2 -1 -1 -2 -1 -0 -0 -0 -5 -19 -8 -7 -3 -5 -7 -5 -30 -3
-0 -0 -0 -0 -0 -0 -4 -4 -40 -31 -2 -3 -4 -2 -2 -26 -10 -13 -28 -65 -105 -114 -75 -31 -25 -22 -28 -39 -0 -5 -2 -1 -3 -3 -2 -3 -0 -0 -0 -1 -0 -21 -2 -6 -1 -3 -2 -25 -9
-0 -0 -0 -0 -0 -0 -0 -4 -18 -35 -13 -2 -2 -2 -4 -11 -48 -56 -68 -66 -70 -96 -87 -70 -16 -10 -29 -42 -37 -29 -5 -3 -2 -2 -5 -1 -2 -0 -2 -0 -1 -1 -4 -1 -5 -1 -8 -21 -5
-0 -0 -0 -0 -0 -0 -0 -2 -6 -23 -14 -5 -6 -3 -3 -3 -29 -53 -73 -34 -34 -53 -64 -51 -31 -16 -9 -34 -77 -20 -22 -6 -2 -9 -1 -1 -2 -1 -0 -0 -3 -2 -1 -0 -1 -1 -3 -8 -7
-0 -0 -0 -0 -0 -0 -0 -0 -0 -5 -52 -130 -3 -5 -4 -5 -23 -47 -63 -84 -80 -67 -76 -54 -25 -17 -19 -17 -76 -45 -19 -24 -5 -3 -2 -4 -4 -2 -6 -4 -2 -3 -1 -1 -1 -1 -1 -0 -3
-0 -0 -0 -0 -0 -0 -0 -0 -0 -0 -10 -26 -15 -6 -4 -12 -18 -37 -74 -96 -113 -93 -79 -67 -32 -16 -10 -20 -49 -87 -43 -49 -34 -2 -2 -2 -18 -5 -5 -13 -0 -0 -1 -0 -1 -1 -2 -1 -4
-0 -0 -0 -0 -0 -0 -0 -0 -0 -0 -0 -22 -0 -5 -4 -2 -12 -28 -69 -99 -119 -112 -105 -110 -68 -35 -18 -42 -13 -21 -58 -82 -127 -4 -9 -2 -2 -2 -9 -1 -1 -1 -2 -0 -3 -1 -2 -10 -1
-0 -0 -0 -0 -0 -0 -0 -0 -0 -0 -0 -0 -4 -4 -17 -102 -3 -6 -32 -91 -122 -136 -122 -93 -71 -40 -40 -30 -21 -23 -46 -55 -26 -4 -1 -4 -1 -4 -4 -10 -9 -0 -1 -1 -0 -0 -2 -1 -2
-0 -0 -1 -8 -0 -0 -0 -0 -0 -0 -0 -0 -0 -0 -8 -5 -4 -5 -3 -49 -104 -117 -108 -115 -88 -53 -52 -27 -24 -42 -41 -65 -57 -5 -5 -6 -4 -1 -9 -8 -27 -20 -7 -0 -1 -1 -2 -2 -5
-0 -0 -0 -9 -8 -0 -0 -0 -0 -0 -0 -0 -0 -1 -0 -7 -8 -7 -5 -19 -44 -70 -109 -131 -160 -136 -117 -86 -31 -37 -23 -65 -66 -42 -21 -9 -10 -11 -1 -14 -26 -37 -51 -13 -1 -1 -0 -1 -1
Wind_Speed
22 22 19 10 17 14 16 14 15 12 14 6 4 6 12 12 14 15 33 30 31 31 28 29 29 30 29 29 28 26 26 24 24 23 21 21 23 24 22 22 22 20 18 18 17 18 18 17 16
21 20 18 16 18 19 15 15 9 6 5 9 10 11 12 15 15 28 28 32 30 29 29 28 28 28 28 29 28 26 25 24 24 24 24 24 23 22 22 22 19 20 19 18 18 17 16 17 17
21 18 17 17 18 13 15 0 10 6 9 12 10 9 11 13 23 27 30 33 32 28 26 24 27 26 27 29 28 24 26 26 24 25 25 24 23 23 23 22 20 19 18 18 17 14 15 15 14
17 18 19 18 16 15 10 6 11 3 8 7 12 12 10 3 22 25 31 32 31 27 22 24 25 24 25 28 28 24 25 17 21 22 25 25 25 24 24 22 21 19 17 14 12 9 7 23 21
15 19 20 20 12 17 18 7 7 15 8 10 9 11 11 2 15 29 29 30 28 23 23 24 25 24 25 26 28 27 26 17 22 25 26 26 26 25 24 23 23 22 15 9 12 13 12 23 25
16 17 16 8 10 15 16 15 15 14 6 5 9 13 11 3 20 28 28 30 25 21 25 23 19 22 26 24 27 24 24 22 23 21 27 27 27 25 24 23 21 20 18 17 15 16 21 24 25
17 18 17 16 8 13 15 14 13 13 11 6 11 10 13 16 25 29 29 27 22 24 20 23 21 20 24 20 27 6 9 8 4 16 25 20 25 23 21 19 21 22 24 23 22 23 27 28 28
21 21 20 11 9 10 14 11 10 17 8 8 12 10 16 22 29 29 27 24 21 23 22 26 22 24 26 18 15 3 4 12 12 18 25 27 25 25 24 27 22 24 26 25 24 26 27 28 28
21 20 19 15 13 5 13 14 13 8 9 8 9 13 19 26 27 27 23 22 20 18 25 25 24 25 18 6 12 11 13 17 21 24 25 26 24 25 25 11 23 25 25 25 24 26 28 29 28
21 19 18 19 17 8 9 10 10 11 9 9 10 15 21 27 25 23 22 22 20 21 25 25 19 20 26 17 24 20 24 26 24 23 21 21 7 10 20 25 25 26 26 24 23 23 18 26 22
25 22 19 18 17 11 13 13 7 6 8 10 13 21 25 25 25 25 22 22 21 23 28 19 13 27 30 1 29 27 26 23 20 21 20 13 14 23 24 23 24 24 24 24 22 13 20 19 18
27 25 19 18 10 4 8 11 5 7 15 12 16 22 27 29 29 25 23 22 20 24 26 14 13 29 25 24 27 26 23 24 23 23 17 19 19 22 18 19 21 18 18 21 19 21 21 22 18
26 22 22 15 17 4 8 2 4 6 9 11 17 21 27 30 29 21 19 19 19 24 24 12 11 28 19 25 23 24 17 25 13 19 22 13 17 17 20 12 16 19 17 20 15 19 9 17 10
20 25 22 19 13 20 13 13 9 3 7 10 16 21 28 30 28 21 20 19 19 22 23 11 11 29 22 26 22 17 24 10 21 24 22 17 14 21 20 19 16 15 20 11 7 6 21 17 20
34 27 19 23 12 19 22 10 6 4 9 12 19 23 27 30 23 21 20 18 19 20 20 12 8 28 25 22 23 26 22 23 23 8 18 19 19 18 19 18 7 15 19 20 19 17 17 20 19
35 34 34 13 12 13 18 10 2 3 7 10 19 25 27 30 24 20 18 18 18 18 17 14 29 26 28 28 28 26 25 25 25 22 23 22 18 19 17 19 20 19 11 18 19 18 15 16 19
17 29 28 33 9 13 11 24 24 2 7 5 13 23 26 28 26 21 19 19 17 16 16 15 31 21 29 27 30 26 20 23 20 22 22 21 21 19 19 12 20 15 16 19 20 15 17 5 18
24 24 31 28 17 9 12 10 10 31 8 6 9 18 25 25 26 21 20 19 17 16 14 16 28 17 24 9 29 28 18 25 24 25 16 20 22 21 20 16 17 18 18 11 15 14 11 12 13
32 31 29 23 18 32 40 14 13 16 8 8 7 15 24 25 24 21 22 21 17 19 18 20 15 15 17 26 32 31 28 27 26 25 20 22 22 21 19 18 20 20 17 20 19 18 18 17 15
36 30 33 32 17 23 34 35 11 4 5 5 7 14 23 25 25 24 25 24 20 20 20 16 13 19 32 32 33 30 30 29 27 25 24 23 23 22 21 18 20 19 18 17 17 16 19 18 19
33 33 31 28 29 26 32 33 35 24 7 6 6 9 20 24 27 25 26 27 21 21 23 16 13 19 16 34 31 30 30 27 28 27 25 25 24 23 21 20 14 20 18 18 19 18 17 19 20
34 26 35 32 33 32 33 38 43 34 10 11 8 9 15 22 25 27 25 27 24 21 20 12 16 20 16 37 25 35 33 32 29 28 27 25 26 25 23 21 20 20 19 21 20 19 18 20 19
34 30 30 34 37 38 37 36 17 31 14 12 14 12 14 18 23 27 28 26 24 19 19 15 16 24 18 14 37 9 36 33 30 30 8 25 26 26 24 23 22 20 20 19 19 18 19 19 18
31 32 33 33 35 46 43 44 41 25 29 15 16 15 14 15 20 25 24 24 25 21 18 17 16 18 25 14 41 32 37 35 33 31 15 29 26 26 25 24 21 20 20 19 20 20 20 19 19
27 31 37 38 41 47 40 47 45 26 17 48 17 18 16 16 17 20 27 27 26 25 22 18 18 18 18 16 21 39 39 39 33 23 32 30 29 26 16 24 22 20 19 16 18 19 20 20 20
36 35 39 45 40 48 39 45 51 41 23 29 42 19 19 18 17 18 22 23 23 24 22 20 19 18 19 19 17 21 22 40 39 35 33 33 30 29 5 12 25 23 16 19 16 18 20 20 21
37 42 42 46 41 48 41 44 45 37 42 21 35 19 27 21 18 17 19 22 21 22 22 21 20 20 20 20 22 19 17 39 21 37 38 33 33 29 25 13 19 23 20 19 16 20 18 7 21
39 36 40 47 53 56 47 45 43 42 42 44 35 27 18 26 16 17 17 21 22 23 21 19 19 21 21 22 23 22 19 20 42 21 29 38 34 32 26 9 26 20 21 20 17 18 17 15 20
37 46 43 42 49 54 52 43 37 30 37 40 39 30 30 20 17 17 16 18 19 19 21 21 18 22 22 22 22 21 20 19 19 34 17 39 35 32 33 31 26 23 21 20 15 19 18 12 17
42 47 47 49 48 48 54 45 20 29 26 33 34 33 30 29 20 17 16 16 17 20 22 23 22 19 21 22 23 22 22 21 20 20 22 20 33 35 32 33 34 16 17 14 11 13 14 14 13
Wind_Direction
137 141 129 285 259 140 145 56 67 41 58 303 339 316 37 359 10 67 115 115 113 115 108 116 116 121 121 127 138 144 143 150 149 154 157 154 136 109 77 71 69 39 29 29 25 32 38 39 42
126 127 174 207 178 151 92 78 46 326 344 38 41 31 25 27 40 102 106 117 113 111 114 109 112 115 115 126 139 147 144 147 145 141 137 130 112 93 76 85 42 45 39 33 31 28 29 36 39
191 131 226 196 175 175 49 22 44 7 55 56 23 5 356 32 89 104 111 118 120 111 102 98 108 103 111 121 139 156 137 131 145 119 116 115 104 86 93 78 59 45 39 35 32 19 25 22 23
111 156 210 200 142 28 352 327 65 329 52 337 62 23 6 301 100 106 115 118 121 106 95 101 103 99 100 117 130 160 149 61 72 80 100 110 101 94 87 75 63 50 39 22 9 351 338 66 55
245 234 232 213 123 159 86 344 36 95 48 60 27 18 47 4 90 116 116 119 112 99 98 102 105 100 102 105 135 119 102 60 79 94 102 116 110 115 102 92 101 122 174 203 182 170 172 125 113
270 247 281 251 52 95 100 81 89 80 34 343 33 50 48 50 110 121 118 125 110 98 106 101 91 96 106 97 114 95 97 81 86 147 123 97 107 122 115 122 134 147 164 165 164 156 140 126 125
275 264 284 246 7 90 94 90 90 83 66 8 73 22 73 107 125 126 124 119 105 109 96 104 99 93 105 85 127 36 42 216 235 145 140 59 127 130 135 138 139 142 141 139 137 132 108 103 104
246 245 250 351 1 12 69 65 64 123 18 45 78 54 108 123 132 131 125 116 107 112 105 117 104 108 115 85 201 256 243 199 198 172 143 108 133 128 127 114 131 128 132 133 130 122 109 104 110
244 269 277 294 305 332 85 74 76 29 41 29 62 77 111 129 131 131 123 118 111 107 119 118 116 119 95 55 215 213 205 191 166 153 145 137 131 125 121 157 132 125 131 132 131 126 111 103 104
254 276 287 241 286 44 71 81 63 69 61 31 50 80 114 132 134 133 129 124 118 117 123 124 103 111 127 120 181 193 176 158 164 159 161 163 1 196 81 119 116 115 118 133 140 125 156 120 111
243 258 274 285 296 291 98 105 64 354 65 69 91 112 125 133 137 137 132 128 123 125 134 110 96 144 165 235 168 173 171 177 187 175 177 203 193 148 105 113 110 109 118 116 134 170 132 145 148
256 259 278 275 329 347 83 95 328 312 257 78 103 122 132 139 142 139 136 131 126 129 134 108 102 182 193 196 182 179 185 180 174 166 194 181 182 119 171 146 115 82 171 121 142 110 114 115 147
259 273 268 291 271 324 114 35 340 40 350 65 106 124 139 142 144 138 136 132 128 133 132 111 108 194 214 197 199 189 209 169 97 169 176 231 191 184 139 142 182 157 148 129 118 82 206 178 11
278 268 275 276 283 256 273 273 289 18 43 78 113 128 144 146 145 142 141 137 134 134 134 116 119 195 210 199 205 216 190 239 187 156 147 198 224 146 126 161 171 30 157 330 298 208 109 175 109
223 259 277 269 281 266 258 295 282 62 83 97 122 135 144 151 145 145 143 141 137 135 133 124 201 201 207 212 208 195 205 187 185 227 197 187 174 182 161 146 214 168 128 90 142 177 189 96 137
226 220 228 270 262 271 270 261 223 90 99 104 123 138 144 152 149 147 145 144 140 136 136 131 204 210 205 198 195 193 191 183 166 186 165 168 190 179 187 171 135 158 210 153 134 181 209 187 159
264 253 244 241 197 259 254 264 253 203 128 124 121 138 146 151 152 151 149 148 144 141 140 138 207 220 205 206 183 202 221 204 202 190 190 139 154 178 185 189 162 178 169 147 125 125 183 97 183
258 258 253 255 262 202 192 272 154 172 138 139 131 137 149 153 156 155 155 152 149 146 145 144 218 227 219 236 195 198 227 200 188 164 93 129 166 172 179 186 182 176 169 231 180 182 253 230 218
257 257 258 263 259 247 215 264 285 143 139 137 146 142 152 157 156 158 158 156 155 152 151 151 213 228 231 219 180 190 202 190 185 175 198 161 178 178 189 190 170 174 175 150 149 162 181 190 214
253 260 255 253 262 258 245 248 257 188 195 177 154 149 154 157 159 162 163 162 161 159 157 157 216 229 207 212 202 198 198 183 189 187 178 182 181 184 182 194 173 183 178 177 180 194 183 185 167
256 256 257 260 257 257 253 254 246 238 208 211 172 161 155 162 164 165 167 167 167 165 164 166 214 230 231 212 215 213 205 211 198 180 181 183 186 186 196 192 213 179 188 171 175 185 196 172 135
257 260 256 259 256 257 252 255 243 251 205 218 205 205 160 160 166 169 170 172 172 172 170 197 225 231 231 211 167 193 200 197 198 197 182 160 188 190 187 188 188 184 182 157 164 178 189 174 167
258 263 260 256 256 255 252 253 247 185 202 220 224 209 174 165 165 168 174 175 176 183 178 188 222 234 232 194 212 223 203 198 196 199 267 212 190 199 197 190 184 183 182 184 189 190 190 195 204
261 260 261 260 256 251 247 246 247 246 250 215 209 213 197 178 170 170 171 172 176 183 188 191 206 224 234 199 196 208 190 208 207 209 243 195 181 185 195 188 173 169 183 162 159 170 181 205 210
256 252 251 252 249 250 249 247 244 252 231 216 203 207 200 191 182 174 171 174 176 179 187 196 200 206 199 197 182 214 205 205 226 245 212 200 196 184 140 183 183 165 162 134 154 159 196 194 202
248 248 248 248 253 251 251 247 242 248 260 249 242 198 203 199 194 190 180 179 179 180 184 200 202 206 207 200 201 187 185 208 214 222 214 211 213 213 312 137 188 188 139 162 139 152 170 164 188
251 245 250 256 259 253 253 250 251 248 248 253 239 211 241 195 202 198 189 183 183 182 185 192 213 215 212 202 231 225 203 192 178 219 212 226 221 230 244 258 165 183 172 164 146 182 155 114 186
254 255 248 248 248 248 251 249 247 244 245 245 249 254 226 185 210 210 201 188 187 186 187 190 214 220 223 227 230 232 225 195 224 247 245 216 229 233 246 255 192 174 176 174 161 165 156 146 175
252 250 253 256 246 247 247 253 255 248 244 247 244 251 249 244 227 221 212 196 192 190 189 189 200 229 226 227 226 226 223 220 216 241 244 232 236 241 238 237 216 186 180 178 161 178 182 136 165
256 251 249 248 247 246 247 251 283 255 246 247 245 243 247 249 241 228 226 210 200 193 190 189 192 203 223 226 227 224 230 229 225 204 193 252 246 242 246 239 225 174 175 167 160 164 167 168 157